Weather History for KAFN - March, 2013

Change the Weather History Date:

Sunday, March 17, 2013

  Actual Average Record
Temperature  
Mean Temperature 19 °F -  
Max Temperature 30 °F 37 °F 66 °F (2003)
Min Temperature 10 °F 19 °F 6 °F (1997)
Degree Days  
Heating Degree Days 46    
Moisture  
Dew Point 5 °F    
Average Humidity 53    
Maximum Humidity 87    
Minimum Humidity 29    
Precipitation  
Precipitation 0.00 in - - ()
Sea Level Pressure  
Sea Level Pressure 30.08 in    
Wind  
Wind Speed 3 mph (NW)    
Max Wind Speed 10 mph    
Max Gust Speed 21 mph    
Visibility 10 miles    
Events      
Averages and records for this station are not official NWS values.
T = Trace of Precipitation, MM = Missing Value Source: NWS Daily Summary

Daily Weather History Graph

Daily Weather History Graph

Search for Another Location

Airport or City:

Trip Planner

Search our weather history database for the weather conditions in past years. The results will help you decide how hot, cold, wet, or windy it might be!

Date:

Astronomy

Mar. 17, 2013 Rise Set
Actual Time 6:56 AM EDT 6:57 PM EDT
Civil Twilight 6:28 AM EDT 7:25 PM EDT
Nautical Twilight 5:55 AM EDT 7:58 PM EDT
Astronomical Twilight 5:21 AM EDT 8:31 PM EDT
Moon 9:58 AM EDT (3/17) 12:09 AM EDT (3/17)
Length of Visible Light 12h 57m
Length of Day
12h 00m
Waxing Crescent, 31% of the Moon is Illuminated
Mar 17
Waxing Crescent
Mar 19
First Quarter
Mar 27
Full
Apr 3
Last Quarter
Apr 10
New

Hourly Weather History & Observations

Time (EDT) Temp. Windchill Dew Point Humidity Pressure Visibility Wind Dir Wind Speed Gust Speed Precip Events Conditions
12:52 AM 17.1 °F - 10.0 °F 74% 29.91 in 10.0 mi Calm Calm - N/A   Clear
1:52 AM 15.1 °F - 10.0 °F 80% 29.91 in 10.0 mi Calm Calm - N/A   Clear
2:52 AM 12.9 °F - 9.0 °F 84% 29.92 in 10.0 mi Calm Calm - N/A   Clear
3:52 AM 12.9 °F - 9.0 °F 84% 29.93 in 10.0 mi Calm Calm - N/A   Clear
4:52 AM 12.0 °F - 8.1 °F 84% 29.94 in 10.0 mi Calm Calm - N/A   Clear
5:52 AM 10.0 °F - 7.0 °F 87% 29.95 in 10.0 mi Calm Calm - N/A   Clear
6:52 AM 16.0 °F - 10.0 °F 77% 29.97 in 10.0 mi Calm Calm - N/A   Clear
7:52 AM 19.9 °F 12.1 °F 10.0 °F 65% 30.02 in 10.0 mi Variable 5.8 mph - N/A   Clear
8:52 AM 21.0 °F 13.4 °F 8.1 °F 57% 30.02 in 10.0 mi West 5.8 mph - N/A   Clear
9:52 AM 24.1 °F 14.4 °F 7.0 °F 48% 30.03 in 10.0 mi West 9.2 mph - N/A   Clear
10:52 AM 26.1 °F 16.2 °F 7.0 °F 44% 30.05 in 10.0 mi WNW 10.4 mph 17.3 mph N/A   Mostly Cloudy
12:52 PM 28.0 °F 18.6 °F 1.9 °F 33% 30.07 in 10.0 mi NW 10.4 mph 20.7 mph N/A   Partly Cloudy
1:52 PM 28.0 °F 19.3 °F 3.9 °F 36% 30.08 in 10.0 mi NNW 9.2 mph 20.7 mph N/A   Clear
2:52 PM 28.9 °F 19.8 °F 3.0 °F 33% 30.08 in 10.0 mi NW 10.4 mph 20.7 mph N/A   Clear
3:52 PM 28.9 °F 21.1 °F 3.9 °F 35% 30.10 in 10.0 mi North 8.1 mph - N/A   Partly Cloudy
4:52 PM 28.9 °F 22.8 °F 3.0 °F 33% 30.11 in 10.0 mi Variable 5.8 mph - N/A   Scattered Clouds
5:52 PM 28.9 °F 20.4 °F -0.0 °F 29% 30.14 in 10.0 mi WNW 9.2 mph 17.3 mph N/A   Clear
6:52 PM 27.0 °F - 1.9 °F 34% 30.17 in 10.0 mi Calm Calm - N/A   Clear
7:52 PM 25.0 °F 20.7 °F 3.0 °F 39% 30.21 in 10.0 mi Variable 3.5 mph - N/A   Clear
8:52 PM 23.0 °F 15.8 °F 3.9 °F 44% 30.25 in 10.0 mi NNW 5.8 mph - N/A   Clear
9:52 PM 21.9 °F 17.2 °F 1.0 °F 40% 30.28 in 10.0 mi Variable 3.5 mph - N/A   Clear
10:52 PM 19.9 °F 13.4 °F -0.0 °F 42% 30.30 in 10.0 mi Variable 4.6 mph - N/A   Clear
11:52 PM 18.0 °F 11.1 °F -0.0 °F 45% 30.32 in 10.0 mi Variable 4.6 mph - N/A   Clear